Delta Virtual Airport Information Service

San Francisco International Airport

ICAO: KSFO Country: United States
Latitude: 37.619 Longitude: -122.374
Latest Arrival : DAC3333 (KOAK-KSFO) Latest Departure : DAC333 (KSFO-KOAK)


WX CaptureLIVE
Data provided by noaa.gov | Fetched at 10:08:09

METAR : KSFO 041556Z 00000KT 10SM FEW025 11/06 A3023 RMK AO2 SLP236 T01110056

TAF : KSFO 041500Z 0415/0518 27004KT P6SM FEW020 FM042200 22012G18KT P6SM FEW200 FM050200 20008KT P6SM FEW200 FM050600 19005KT P6SM FEW200


Runway Data for KSFO
Data provided by openaviationdata.com

Runway ID Mag Var Hdg Length Elevation Surface ILS Freq ILS Id ILS Slope
01L 15 12° 7506 ft 13 ft Asphalt -- -- --
01R 15 12° 8654 ft 13 ft Asphalt -- -- --
10L 15 102° 11861 ft 13 ft Asphalt -- -- --
10R 15 102° 10594 ft 13 ft Asphalt -- -- --
19L 15 192° 8654 ft 13 ft Asphalt 108.9 ISIA 2
19R 15 192° 7506 ft 13 ft Asphalt -- -- --
28L 15 282° 10594 ft 13 ft Asphalt 109.55 ISFO 3
28R 15 282° 11861 ft 13 ft Asphalt 111.7 IGWQ 3

San Francisco International Airport, United States
Use only for reference purposes



Not for navigational purposes.